TimeCEST,TemperatureF,Dew PointF,Humidity,Sea Level PressureIn,VisibilityMPH,Wind Direction,Wind SpeedMPH,Gust SpeedMPH,PrecipitationIn,Events,Conditions,WindDirDegrees,DateUTC
12:00 AM,71.6,64.4,78,30.01,-9999.0,ESE,3.5,-,N/A,,Clear,110,2013-06-17 22:00:00
1:00 AM,73.4,64.4,73,29.98,-9999.0,Variable,2.3,-,N/A,,Clear,0,2013-06-17 23:00:00
2:00 AM,69.8,64.4,83,29.98,-9999.0,Calm,Calm,-,N/A,,Clear,0,2013-06-18 00:00:00
3:00 AM,68.0,64.4,88,29.98,-9999.0,NNE,2.3,-,N/A,,Clear,20,2013-06-18 01:00:00
4:00 AM,68.0,64.4,88,29.98,-9999.0,NNE,1.2,-,N/A,,Clear,30,2013-06-18 02:00:00
5:00 AM,64.4,62.6,94,30.01,-9999.0,West,4.6,-,N/A,,Clear,280,2013-06-18 03:00:00
6:00 AM,68.0,64.4,88,30.01,-9999.0,SSE,3.5,-,N/A,,Clear,150,2013-06-18 04:00:00
7:00 AM,71.6,66.2,83,30.01,-9999.0,Variable,1.2,-,N/A,,Clear,0,2013-06-18 05:00:00
8:00 AM,75.2,68.0,78,30.01,-9999.0,East,4.6,-,N/A,,Clear,90,2013-06-18 06:00:00
9:00 AM,77.0,68.0,74,30.01,-9999.0,SE,3.5,-,N/A,,Clear,130,2013-06-18 07:00:00
10:00 AM,80.6,69.8,70,30.01,-9999.0,ESE,3.5,-,N/A,,Clear,110,2013-06-18 08:00:00
11:00 AM,84.2,69.8,62,29.98,-9999.0,SE,5.8,-,N/A,,Clear,130,2013-06-18 09:00:00
11:22 AM,86.0,69.8,58,29.98,-9999.0,SE,4.6,-,N/A,,Clear,130,2013-06-18 09:22:00
12:00 PM,87.8,71.6,58,29.98,-9999.0,ESE,3.5,-,N/A,,Clear,120,2013-06-18 10:00:00
1:00 PM,89.6,71.6,55,29.98,-9999.0,Variable,3.5,-,N/A,,Clear,0,2013-06-18 11:00:00
2:00 PM,91.4,68.0,46,29.98,6.2,ENE,4.6,-,N/A,,Scattered Clouds,70,2013-06-18 12:00:00
3:00 PM,91.4,68.0,46,29.98,6.2,NNE,3.5,-,N/A,,Scattered Clouds,30,2013-06-18 13:00:00
4:00 PM,93.2,71.6,49,29.95,6.2,NW,5.8,-,N/A,,Scattered Clouds,320,2013-06-18 14:00:00
5:00 PM,91.4,71.6,52,29.98,6.2,North,8.1,-,N/A,,Scattered Clouds,360,2013-06-18 15:00:00
6:00 PM,89.6,71.6,55,29.98,6.2,NNW,6.9,-,N/A,,Mostly Cloudy,330,2013-06-18 16:00:00
7:00 PM,87.8,68.0,52,30.01,6.2,North,4.6,-,N/A,,Mostly Cloudy,360,2013-06-18 17:00:00
8:00 PM,86.0,68.0,55,30.01,6.2,North,2.3,-,N/A,,Mostly Cloudy,360,2013-06-18 18:00:00
9:00 PM,80.6,71.6,74,30.01,-9999.0,WSW,5.8,-,N/A,,Clear,240,2013-06-18 19:00:00
10:00 PM,78.8,69.8,74,30.04,-9999.0,Variable,2.3,-,N/A,,Clear,0,2013-06-18 20:00:00
11:00 PM,78.8,71.6,78,30.04,-9999.0,SSW,2.3,-,N/A,,Clear,200,2013-06-18 21:00:00